| time (UTC) | temp F | wind direction | speed knots | gust knots | rain 1hr in | rain 24hr in | rain mn in | humidity % | barometer mb |
| 20260904194537 | 66 | 335 | 3.5 | 7.8 | 0.00 | 0.00 | 0.00 | 44 | 1012.4 |
| 20260904193037 | 66 | 15 | 2.6 | 7.0 | 0.00 | 0.00 | 0.00 | 45 | 1012.6 |
| 20260904191534 | 65 | 352 | 4.3 | 7.0 | 0.00 | 0.00 | 0.00 | 45 | 1012.7 |
| 20260904190032 | 64 | 318 | 4.3 | 9.6 | 0.00 | 0.00 | 0.00 | 47 | 1012.8 |
| 20260904184530 | 64 | 336 | 2.6 | 8.7 | 0.00 | 0.00 | 0.00 | 47 | 1012.8 |
| 20260904183029 | 64 | 12 | 4.3 | 8.7 | 0.00 | 0.00 | 0.00 | 46 | 1013.0 |
| 20260904181527 | 63 | 30 | 4.3 | 7.8 | 0.00 | 0.00 | 0.00 | 48 | 1013.0 |
| 20260904180026 | 63 | 23 | 2.6 | 7.0 | 0.00 | 0.00 | 0.00 | 48 | 1013.1 |
| 20260904174525 | 63 | 13 | 2.6 | 5.2 | 0.00 | 0.00 | 0.00 | 49 | 1013.1 |
| 20260904173031 | 61 | 311 | 0.9 | 6.1 | 0.00 | 0.00 | 0.00 | 55 | 1013.0 |
| 20260904171519 | 60 | 10 | 0.9 | 4.3 | 0.00 | 0.00 | 0.00 | 57 | 1012.9 |
| 20260904170017 | 59 | 60 | 0.0 | 1.7 | 0.00 | 0.00 | 0.00 | 59 | 1013.1 |
| 20260904164512 | 58 | 279 | 0.0 | 2.6 | 0.00 | 0.00 | 0.00 | 63 | 1013.0 |
| 20260904163012 | 58 | 68 | 0.0 | 1.7 | 0.00 | 0.00 | 0.00 | 63 | 1012.9 |
| 20260904161507 | 55 | 345 | 0.0 | 3.5 | 0.00 | 0.00 | 0.00 | 69 | 1012.8 |
| 20260904160014 | 53 | 268 | 0.0 | 2.6 | 0.00 | 0.00 | 0.00 | 73 | 1012.8 |
| 20260904154504 | 51 | 299 | 1.7 | 4.3 | 0.00 | 0.00 | 0.00 | 73 | 1012.9 |
| 20260904153004 | 50 | 328 | 1.7 | 4.3 | 0.00 | 0.00 | 0.00 | 76 | 1012.8 |
| 20260904151502 | 49 | 108 | 0.9 | 2.6 | 0.00 | 0.00 | 0.00 | 79 | 1012.7 |
| 20260904150009 | 50 | 108 | 0.0 | 1.7 | 0.00 | 0.01 | 0.00 | 77 | 1012.6 |
| 20260904144603 | 47 | 108 | 0.0 | 0.0 | 0.00 | 0.01 | 0.00 | 80 | 1012.6 |
| 20260904143059 | 44 | 108 | 0.0 | 0.0 | 0.00 | 0.01 | 0.00 | 84 | 1012.5 |
| 20260904141559 | 43 | 108 | 0.0 | 0.0 | 0.00 | 0.01 | 0.00 | 83 | 1012.4 |
| 20260904140105 | 43 | 106 | 0.0 | 0.0 | 0.00 | 0.01 | 0.00 | 83 | 1012.1 |
| 20260904134604 | 41 | 106 | 0.0 | 0.0 | 0.00 | 0.01 | 0.00 | 86 | 1011.9 |
| 20260904133054 | 42 | 106 | 0.0 | 0.0 | 0.00 | 0.01 | 0.00 | 83 | 1011.7 |
| 20260904131548 | 43 | 106 | 0.0 | 0.0 | 0.00 | 0.01 | 0.00 | 82 | 1011.8 |
| 20260904130052 | 45 | 115 | 0.9 | 5.2 | 0.00 | 0.01 | 0.00 | 78 | 1011.5 |
| 20260904124553 | 44 | 101 | 2.6 | 3.5 | 0.00 | 0.01 | 0.00 | 81 | 1011.4 |
| 20260904123043 | 44 | 99 | 0.9 | 1.7 | 0.00 | 0.01 | 0.00 | 83 | 1011.4 |
| 20260904121540 | 45 | 99 | 0.0 | 0.0 | 0.00 | 0.01 | 0.00 | 81 | 1011.4 |
| 20260904120038 | 46 | 99 | 0.0 | 0.9 | 0.00 | 0.01 | 0.00 | 79 | 1011.3 |
| 20260904114538 | 45 | 99 | 0.9 | 2.6 | 0.00 | 0.01 | 0.00 | 82 | 1011.0 |
| 20260904113036 | 45 | 171 | 0.0 | 0.0 | 0.00 | 0.01 | 0.00 | 81 | 1010.9 |
| 20260904111539 | 46 | 171 | 0.0 | 1.7 | 0.00 | 0.01 | 0.00 | 80 | 1010.6 |
| 20260904110030 | 46 | 341 | 0.0 | 1.7 | 0.00 | 0.02 | 0.00 | 81 | 1010.4 |
| 20260904104532 | 46 | 301 | 0.9 | 2.6 | 0.00 | 0.02 | 0.00 | 81 | 1010.5 |
| 20260904103026 | 46 | 270 | 0.9 | 4.3 | 0.00 | 0.02 | 0.00 | 79 | 1010.2 |
| 20260904101522 | 47 | 304 | 0.0 | 2.6 | 0.00 | 0.02 | 0.00 | 79 | 1010.0 |
| 20260904100019 | 48 | 101 | 1.7 | 5.2 | 0.00 | 0.10 | 0.00 | 75 | 1009.4 |
| 20260904094517 | 49 | 108 | 0.0 | 1.7 | 0.00 | 0.10 | 0.00 | 73 | 1009.6 |
| 20260904093016 | 48 | 110 | 1.7 | 2.6 | 0.00 | 0.10 | 0.00 | 75 | 1009.7 |
| 20260904091515 | 49 | 110 | 0.9 | 1.7 | 0.00 | 0.10 | 0.00 | 71 | 1009.6 |
| 20260904090013 | 50 | 110 | 0.0 | 0.9 | 0.00 | 0.11 | 0.00 | 70 | 1009.7 |
| 20260904084513 | 49 | 110 | 0.0 | 2.6 | 0.00 | 0.11 | 0.00 | 71 | 1009.7 |
| 20260904083009 | 49 | 250 | 0.0 | 0.0 | 0.00 | 0.11 | 0.00 | 70 | 1009.3 |
| 20260904081508 | 50 | 250 | 0.0 | 0.9 | 0.00 | 0.11 | 0.00 | 68 | 1009.2 |
| 20260904080003 | 51 | 250 | 0.0 | 1.7 | 0.00 | 0.11 | 0.00 | 66 | 1009.3 |
| 20260904074612 | 52 | 257 | 0.9 | 6.1 | 0.00 | 0.11 | 0.00 | 65 | 1009.1 |
| 20260904073101 | 53 | 282 | 6.1 | 7.8 | 0.00 | 0.11 | 0.00 | 61 | 1009.0 |
| 20260904071556 | 54 | 126 | 3.5 | 8.7 | 0.00 | 0.11 | 0.00 | 58 | 1008.7 |
| 20260904070053 | 54 | 109 | 7.0 | 10.4 | 0.00 | 0.11 | 0.00 | 58 | 1008.5 |
| 20260904064551 | 54 | 109 | 6.1 | 12.2 | 0.00 | 0.20 | 0.11 | 59 | 1008.6 |
| 20260904063101 | 55 | 111 | 8.7 | 13.9 | 0.00 | 0.20 | 0.11 | 57 | 1008.5 |
| 20260904061550 | 55 | 117 | 8.7 | 13.0 | 0.00 | 0.20 | 0.11 | 58 | 1008.6 |
| 20260904060048 | 55 | 137 | 10.4 | 13.9 | 0.00 | 0.20 | 0.11 | 58 | 1008.6 |
| 20260904054548 | 55 | 117 | 7.0 | 14.8 | 0.00 | 0.31 | 0.11 | 59 | 1008.4 |
| 20260904053049 | 55 | 115 | 6.1 | 12.2 | 0.00 | 0.31 | 0.11 | 60 | 1008.4 |
| 20260904051559 | 55 | 122 | 5.2 | 15.6 | 0.00 | 0.31 | 0.11 | 60 | 1008.6 |
| 20260904050045 | 55 | 115 | 7.8 | 14.8 | 0.00 | 0.31 | 0.11 | 60 | 1008.8 |
| 20260904044543 | 56 | 103 | 10.4 | 15.6 | 0.00 | 0.38 | 0.11 | 57 | 1009.0 |
| 20260904043042 | 57 | 236 | 0.9 | 7.0 | 0.00 | 0.38 | 0.11 | 56 | 1008.8 |
| 20260904041544 | 57 | 90 | 4.3 | 8.7 | 0.00 | 0.38 | 0.11 | 55 | 1008.5 |
| 20260904040044 | 57 | 111 | 3.5 | 8.7 | 0.00 | 0.42 | 0.11 | 55 | 1008.4 |
| 20260904034539 | 58 | 115 | 8.7 | 13.9 | 0.00 | 0.42 | 0.11 | 52 | 1008.2 |
| 20260904033038 | 58 | 98 | 7.8 | 17.4 | 0.00 | 0.42 | 0.11 | 52 | 1008.1 |
| 20260904031536 | 58 | 103 | 8.7 | 13.9 | 0.00 | 0.42 | 0.11 | 53 | 1008.2 |
| 20260904030034 | 58 | 113 | 9.6 | 14.8 | 0.00 | 0.42 | 0.11 | 52 | 1007.8 |
| 20260904024534 | 59 | 103 | 11.3 | 20.0 | 0.00 | 0.42 | 0.11 | 51 | 1007.7 |
| 20260904023031 | 59 | 108 | 7.8 | 15.6 | 0.00 | 0.42 | 0.11 | 51 | 1007.8 |
| 20260904021536 | 60 | 139 | 6.1 | 13.0 | 0.00 | 0.42 | 0.11 | 50 | 1007.8 |
| 20260904020029 | 60 | 103 | 5.2 | 11.3 | 0.00 | 0.42 | 0.11 | 47 | 1007.8 |
| 20260904014531 | 61 | 118 | 6.1 | 12.2 | 0.00 | 0.42 | 0.11 | 57 | 1007.7 |
| 20260904013028 | 61 | 77 | 7.0 | 12.2 | 0.00 | 0.42 | 0.11 | 58 | 1007.6 |
| 20260904011533 | 61 | 79 | 5.2 | 8.7 | 0.00 | 0.42 | 0.11 | 59 | 1007.9 |
| 20260904010039 | 61 | 311 | 0.9 | 3.5 | 0.00 | 0.42 | 0.11 | 59 | 1008.0 |
| 20260904004527 | 62 | 11 | 0.0 | 1.7 | 0.00 | 0.42 | 0.11 | 58 | 1007.7 |
| 20260904003027 | 62 | 12 | 0.9 | 5.2 | 0.00 | 0.42 | 0.11 | 54 | 1007.7 |
| 20260904001525 | 62 | 63 | 2.6 | 5.2 | 0.00 | 0.42 | 0.11 | 54 | 1007.6 |
| 20260904000030 | 63 | 34 | 1.7 | 3.5 | 0.00 | 0.42 | 0.11 | 52 | 1007.8 |
| 20260903234522 | 63 | 30 | 0.9 | 3.5 | 0.00 | 0.42 | 0.11 | 51 | 1008.0 |
| 20260903233022 | 63 | 1 | 0.9 | 3.5 | 0.00 | 0.42 | 0.11 | 51 | 1008.0 |
| 20260903231521 | 63 | 360 | 2.6 | 5.2 | 0.00 | 0.42 | 0.11 | 47 | 1008.1 |
| 20260903230023 | 63 | 17 | 3.5 | 5.2 | 0.00 | 0.42 | 0.11 | 49 | 1008.1 |
| 20260903224520 | 63 | 337 | 2.6 | 5.2 | 0.00 | 0.42 | 0.11 | 48 | 1008.3 |
| 20260903223030 | 63 | 360 | 2.6 | 4.3 | 0.00 | 0.42 | 0.11 | 49 | 1008.5 |
| 20260903221520 | 63 | 316 | 2.6 | 6.1 | 0.00 | 0.42 | 0.11 | 49 | 1008.5 |
| 20260903220019 | 63 | 9 | 3.5 | 7.0 | 0.00 | 0.42 | 0.11 | 49 | 1008.3 |
| 20260903214520 | 63 | 15 | 1.7 | 6.1 | 0.00 | 0.42 | 0.11 | 48 | 1008.5 |
| 20260903213019 | 63 | 342 | 1.7 | 5.2 | 0.00 | 0.42 | 0.11 | 47 | 1009.0 |
| 20260903211517 | 63 | 310 | 0.9 | 4.3 | 0.00 | 0.42 | 0.11 | 47 | 1009.2 |
| 20260903210017 | 63 | 34 | 0.9 | 5.2 | 0.00 | 0.42 | 0.11 | 48 | 1008.9 |
| 20260903204516 | 63 | 95 | 0.0 | 5.2 | 0.00 | 0.42 | 0.11 | 47 | 1009.1 |
| 20260903203019 | 63 | 34 | 0.0 | 5.2 | 0.00 | 0.42 | 0.11 | 48 | 1009.6 |
| 20260903201512 | 62 | 310 | 3.5 | 5.2 | 0.00 | 0.42 | 0.11 | 48 | 1009.6 |
| 20260903200012 | 62 | 10 | 2.6 | 5.2 | 0.00 | 0.42 | 0.11 | 49 | 1009.7 |